Content
SEND FEEDBACK

France Flag

LILLE, FRANCE


Home > Europe > France
Elevation: 171 feet     Latitude: 50 34N     Longitude: 003 06E

WEATHER
 
SELECT A DAY
Number of Records: 311,775;   Date Range: 7/1/96 - 3/22/16
 
SHARE

PRINT THIS DATA

[ ← Previous Day ]
WEATHER ALMANAC - FEBRUARY 6, 2013
[ Next Day → ]
[ °C ]   °F
Weather ElementAverageHighLow
Temperature37.4 °F42.8 °F (2:00 pm)33.8 °F (12:30 am)
Dewpoint33.8 °F37.4 °F (5:30 am)30.2 °F (11:00 am)
Humidity87 %100 % (1:00 am)60 % (1:00 pm)
Barometer29.54 in29.86 in (11:30 pm)29.30 in (3:00 am)
Wind Speed13.9 mph21.9 mph (8:00 am)
Wind Gust34.5 mph (10:30 am)
Weather ElementAverage
Visibility6.1 mi
Wind DirectionWSW (256.4 °)

Weather ElementTotal
Precipitation---
Heating Degree Days26.7 (Base 65)
Averaged from 45 records on February 6, 2013
WEATHER CONDITIONS BREAKOUT
WIND DIRECTION BREAKOUT
WEATHER BY HOUR - FEBRUARY 6, 2013
[ °C ]   °F
Local TimeTemperatureDewpointHumidityBarometerVisibilityWind DirectionWind SpeedGust SpeedPrecipitationEventsConditions
12:30 AM33.8 °F32.0 °F93 %29.36 in6.2 miSSW (210°)8.1 mphRain-SnowLight Rain
1:00 AM34.0 °F33.0 °F96 %29.37 in3.0 miWSW (250°)11.5 mphSnowLight Snow
1:00 AM33.8 °F33.8 °F100 %29.36 in3.1 miWSW (250°)11.5 mphRain-SnowLight Rain
1:30 AM33.8 °F33.8 °F100 %29.33 in6.2 miSW (230°)13.8 mphOvercast
2:00 AM35.6 °F33.8 °F93 %29.33 in6.2 miSW (220°)15.0 mphRainLight Rain
2:30 AM35.6 °F33.8 °F93 %29.33 in5.0 miWSW (240°)13.8 mphRainLight Rain
3:00 AM35.6 °F33.8 °F93 %29.30 in5.6 miSW (220°)10.4 mphRainLight Rain
3:30 AM35.6 °F33.8 °F93 %29.30 in6.2 miSW (230°)8.1 mphOvercast
4:00 AM35.6 °F35.6 °F100 %29.30 in2.2 miWSW (250°)8.1 mphRainLight Rain
5:00 AM37.4 °F35.6 °F93 %29.30 in3.1 miWNW (290°)5.8 mphRainLight Rain
5:30 AM37.4 °F37.4 °F100 %29.30 in2.5 miNW (320°)10.4 mphRainLight Rain
6:00 AM39.2 °F37.4 °F93 %29.33 in6.2 miNNW (340°)11.5 mphRainLight Rain
6:30 AM39.2 °F37.4 °F93 %29.33 in6.2 miNW (320°)16.1 mphRainLight Rain
7:00 AM39.0 °F37.0 °F91 %29.35 in19.0 miNNW (340°)13.8 mphRainRain
7:00 AM39.2 °F37.4 °F93 %29.33 in6.2 miNNW (330°)13.8 mphRainLight Rain
7:30 AM39.2 °F37.4 °F93 %29.36 in6.2 miNNW (340°)13.8 mphMostly Cloudy
8:00 AM37.4 °F33.8 °F87 %29.39 in6.2 miNNW (340°)21.9 mphMostly Cloudy
8:30 AM37.4 °F32.0 °F81 %29.39 in6.2 miNorth (350°)19.6 mphMostly Cloudy
9:00 AM37.4 °F32.0 °F81 %29.42 in6.2 miNorth (360°)20.7 mph32.2 mphMostly Cloudy
10:00 AM37.4 °F32.0 °F81 %29.50 in6.2 miNorth (10°)19.6 mphMostly Cloudy
10:30 AM37.4 °F32.0 °F81 %29.50 in6.2 miNorth (10°)20.7 mph34.5 mphMostly Cloudy
11:00 AM39.2 °F30.2 °F70 %29.53 in6.2 miNorth (10°)20.7 mphMostly Cloudy
11:30 AM37.4 °F30.2 °F75 %29.56 in6.2 miNorth (360°)19.6 mphMostly Cloudy
12:00 PM39.2 °F32.0 °F75 %29.59 in6.2 miNorth (360°)20.7 mphScattered Clouds
12:30 PM41.0 °F32.0 °F70 %29.59 in6.2 miNorth (360°)19.6 mphScattered Clouds
1:00 PM41.0 °F32.0 °F60 %29.63 in25.0 miNorth19.6 mphPartly Cloudy
1:00 PM41.0 °F32.0 °F70 %29.62 in6.2 miNorth (360°)19.6 mphScattered Clouds
1:30 PM41.0 °F32.0 °F70 %29.62 in6.2 miNorth (10°)19.6 mphMostly Cloudy
2:00 PM42.8 °F32.0 °F66 %29.62 in6.2 miNorth (360°)18.4 mphMostly Cloudy
2:30 PM42.8 °F32.0 °F66 %29.62 in6.2 miNorth (360°)19.6 mphMostly Cloudy
4:00 PM41.0 °F33.8 °F76 %29.65 in6.2 miNNW (340°)16.1 mphScattered Clouds
4:30 PM41.0 °F35.6 °F81 %29.65 in6.2 miNNW (330°)11.5 mphRainLight Rain Showers
6:00 PM37.4 °F35.6 °F93 %29.68 in1.9 miNNW (330°)3.5 mphRainLight Rain Showers
6:30 PM37.4 °F35.6 °F93 %29.68 in2.5 miNE (50°)5.8 mphRainLight Rain Showers
7:00 PM33.8 °F32.0 °F93 %29.71 in1.2 miNE (40°)9.2 mphRainRain
7:00 PM34.0 °F32.0 °F91 %29.74 in1.0 miNE (40°)10.4 mphSnowLight Snow
7:30 PM33.8 °F33.8 °F100 %29.74 in6.2 miNorth (360°)8.1 mphScattered Clouds
8:00 PM35.6 °F33.8 °F93 %29.77 in6.2 miNNW (340°)9.2 mphMostly Cloudy
8:30 PM35.6 °F35.6 °F100 %29.77 in6.2 miNNW (340°)11.5 mphRainLight Rain
9:00 PM37.4 °F35.6 °F93 %29.77 in6.2 miNorth (350°)11.5 mphRainLight Rain
9:30 PM35.6 °F33.8 °F93 %29.80 in6.2 miNorth (360°)17.3 mphRainLight Rain
10:00 PM35.6 °F33.8 °F93 %29.83 in6.2 miNorth (360°)10.4 mphMostly Cloudy
10:30 PM37.4 °F33.8 °F87 %29.83 in6.2 miNW (320°)8.1 mphMostly Cloudy
11:00 PM37.4 °F33.8 °F87 %29.83 in6.2 miNNW (340°)11.5 mphRainLight Rain
11:30 PM35.6 °F33.8 °F93 %29.86 in5.0 miNorth (10°)17.3 mphRainLight Small Hail Showers
Hourly data recorded from LFQQ, located miles away from Lille, France




STORIES FROM OUR PARTNERS